RH
66 63 72 72 67 75 65 58 55 61 65 69 76 75 73 75 74 80 80 77 67 55 48 47 49 47 46 45 44 45 45 46 48 50 53 55 58 58 55 57 61 65 70 72 73 76 71 58 52
71 65 66 70 63 73 70 57 54 51 50 58 65 69 74 79 75 78 78 77 72 57 45 47 49 47 48 47 47 46 46 45 48 51 54 55 56 62 61 60 63 69 72 76 79 77 73 60 52
72 66 64 69 58 60 60 52 49 51 48 47 55 59 74 79 77 77 74 73 71 62 55 50 50 48 49 50 48 47 46 47 50 54 55 58 60 61 63 61 64 67 76 79 82 79 75 66 53
74 70 66 62 53 52 53 56 46 49 49 43 47 56 61 67 68 67 69 71 70 68 64 58 55 52 50 51 53 50 48 50 51 53 56 60 62 63 65 64 67 69 73 77 81 83 78 75 59
73 70 54 44 62 57 69 60 53 43 48 45 43 53 57 58 58 60 64 65 65 65 59 55 54 52 52 54 51 51 52 52 53 56 60 63 65 69 70 71 72 73 75 76 79 80 82 76 65
64 59 45 42 41 51 66 65 54 44 44 43 40 45 48 49 54 58 55 48 48 46 46 46 47 49 51 51 49 50 51 53 56 60 64 68 72 75 76 76 76 75 75 78 77 79 81 79 70
64 61 44 38 46 48 49 49 42 41 44 45 37 36 43 49 51 57 55 54 56 48 47 50 51 51 52 52 51 52 55 55 60 62 66 69 72 75 77 77 75 76 76 79 77 78 79 80 72
66 62 45 38 34 39 42 43 44 38 39 42 37 36 37 50 53 54 54 54 54 48 47 45 44 46 48 51 53 57 59 58 58 58 61 64 70 74 79 85 83 71 72 73 78 76 77 77 75
65 51 42 40 37 34 37 39 41 38 39 43 42 38 36 45 50 52 56 55 51 47 47 46 45 46 47 47 49 52 57 58 58 59 63 70 71 79 84 89 85 80 70 70 74 74 74 76 77
48 37 36 40 39 37 35 36 38 38 43 45 42 37 38 43 44 44 46 45 46 48 47 53 51 48 48 51 50 52 59 63 64 66 61 71 76 84 88 84 84 80 71 63 68 73 73 75 76
33 38 35 34 37 34 37 44 46 45 43 38 37 35 36 40 40 42 43 43 43 48 50 52 51 48 51 56 59 64 71 75 71 67 73 79 74 69 68 60 66 71 64 60 58 67 73 71 80
34 31 33 38 39 35 40 43 44 42 42 36 36 36 38 40 41 41 45 47 48 53 59 54 53 52 52 61 65 67 67 70 72 72 89 85 77 69 67 72 55 59 65 72 59 65 77 74 79
42 36 37 38 39 43 34 30 34 37 41 39 35 33 38 41 44 45 48 49 51 50 57 57 58 55 54 59 63 64 62 67 70 75 80 80 75 65 68 69 63 81 79 87 62 68 72 80 77
54 36 35 41 47 41 30 32 27 34 33 38 39 36 37 40 46 49 49 50 51 52 52 53 55 52 49 50 53 52 56 62 65 64 67 68 69 66 66 78 73 60 46 49 53 65 73 77 81
65 50 49 39 46 44 38 41 35 29 34 33 36 40 42 45 48 48 46 47 49 50 48 48 48 44 42 44 49 52 51 57 63 66 68 73 74 74 75 69 80 63 51 54 57 71 76 79 79
52 53 71 58 42 45 43 49 38 31 27 34 35 35 38 42 46 48 48 46 46 49 45 43 43 41 40 42 47 47 63 67 63 79 81 80 74 68 79 71 57 67 66 66 57 64 77 82 82
51 64 61 57 49 45 48 46 39 35 29 31 35 37 39 41 40 40 42 43 44 46 49 46 41 42 36 38 46 46 66 68 62 72 77 77 76 75 82 77 59 63 67 54 59 54 67 81 88
43 56 58 59 53 54 59 55 41 36 34 33 35 38 43 44 44 41 40 39 41 45 48 48 45 45 42 42 48 52 52 49 57 57 73 88 79 76 75 62 60 75 66 64 59 51 62 87 92
42 50 55 59 51 42 51 54 44 37 39 40 38 40 42 45 47 45 40 39 42 46 48 47 47 47 45 46 42 39 41 48 53 71 74 79 83 75 66 69 64 62 70 63 63 46 61 75 83
44 46 44 42 38 35 45 49 49 44 36 34 36 39 40 43 46 48 46 46 43 44 47 44 48 48 44 41 36 37 43 58 51 73 69 76 79 61 60 72 67 63 62 60 59 64 58 60 65
40 44 41 36 36 34 41 56 69 47 48 43 35 34 40 39 41 47 50 47 46 43 44 39 42 46 46 43 42 42 42 44 55 41 62 66 72 66 64 60 68 64 57 66 63 63 66 62 57
34 43 43 43 37 32 37 59 63 48 44 44 43 37 39 39 38 41 49 47 48 48 45 46 42 41 41 44 47 47 45 43 43 50 64 67 65 67 65 54 57 58 60 65 62 65 62 62 60
24 32 40 33 33 29 28 44 48 50 46 42 44 39 37 36 37 33 36 41 39 42 46 51 46 45 45 45 47 47 45 46 55 55 60 63 66 68 60 57 54 57 60 62 61 56 55 55 55
19 24 28 29 29 26 20 36 43 42 48 44 39 32 34 38 35 33 33 42 39 42 44 46 52 47 49 47 47 47 48 48 54 58 60 62 60 63 61 60 48 50 55 62 58 50 45 48 47
15 19 28 29 29 28 31 39 40 33 29 29 30 27 34 37 37 30 32 39 44 40 39 40 43 47 48 48 49 45 44 46 56 59 60 59 58 64 60 63 52 47 49 56 56 55 45 41 43
12 14 22 25 26 26 29 33 29 25 28 30 28 27 34 38 34 33 34 42 48 47 47 46 39 42 47 47 48 47 53 50 52 56 57 49 52 64 66 65 57 51 51 49 52 55 54 48 43
8 9 12 18 18 20 25 28 27 28 29 33 34 37 44 38 33 39 38 44 50 51 51 45 43 41 43 42 43 45 45 53 50 50 49 51 54 61 66 55 56 50 54 57 50 44 44 47 46
7 8 12 16 15 17 19 28 31 28 30 35 35 43 45 41 30 39 39 41 44 52 52 50 48 45 43 39 40 43 48 54 52 55 56 55 57 57 56 55 51 51 56 56 53 52 53 49 45
9 7 9 11 14 15 18 24 20 27 27 33 41 42 41 48 34 40 43 41 43 54 58 56 46 48 38 38 39 48 54 67 60 53 55 55 56 59 56 54 53 54 56 55 54 55 55 57 57
11 9 8 14 15 16 16 20 22 22 26 33 36 41 38 45 46 56 56 50 40 49 61 62 48 44 34 36 42 48 58 57 57 57 55 55 53 55 58 56 54 54 55 54 54 54 60 62 63